This demonstration page uses our WeatherBlox Daily Observations layout. Learn more.

Left ArrowRight Arrow

38.20091, -84.87328

Hourly Observations for August 5, 2022

Temp ( °F °C ) Dew Point ( °F °C ) Humidity (%) Winds ( mph kmh ) Pressure ( in mb ) Visibility ( mi km ) Precip ( " mm )
12:53 am 00:53 Mostly Clear 76 24.4 72 22.2 88 88 Calm 30.05 1018 10 16 0.00 0.00
1:53 am 01:53 Clear 75 23.9 71 21.7 88 88 SSE 5 7 30.05 1018 10 16 0.00 0.00
2:53 am 02:53 Clear 75 23.9 71 21.7 88 88 Calm 30.05 1018 10 16 0.00 0.00
3:53 am 03:53 Mostly Clear 74 23.3 71 21.7 91 91 ESE 3 6 30.06 1018 10 16 0.00 0.00
4:53 am 04:53 Mostly Cloudy 74 23.3 72 22.2 94 94 Calm 30.06 1018 10 16 0.00 0.00
5:53 am 05:53 Mostly Clear 75 23.9 72 22.2 90 90 Calm 30.07 1018 10 16 0.00 0.00
6:53 am 06:53 Partly Cloudy with Light Rain 75 23.9 71 21.7 88 88 S 3 6 30.08 1019 10 16 0.00 0.00
7:53 am 07:53 Cloudy 74 23.3 70 21.1 88 88 SSE 13 20 30.11 1020 10 16 0.00 0.00
8:17 am 08:17 Cloudy 74 23.3 70 21.1 88 88 S 7 11 30.10 1019 10 16 0.00 0.00
8:53 am 08:53 Mostly Cloudy 74 23.3 69 20.6 85 85 SSE 7 11 30.11 1020 10 16 0.00 0.00
9:53 am 09:53 Cloudy with Light Rain 74 23.3 70 21.1 88 88 E 5 7 30.11 1020 7 11 0.02 0.51
10:53 am 10:53 Cloudy with Light Rain 74 23.3 71 21.7 91 91 SE 6 9 30.12 1020 10 16 0.01 0.25
11:31 am 11:31 Mostly Cloudy 75 23.9 72 22.2 90 90 VRB 5 7 30.13 1020 10 16 0.00 0.00
11:53 am 11:53 Cloudy with Rain 76 24.4 73 22.8 91 91 ESE 3 6 30.14 1021 6 10 0.01 0.25
12:24 pm 12:24 Cloudy with Light Rain 76 24.4 73 22.8 91 91 Calm 30.14 1021 7 11 0.03 0.76
12:53 pm 12:53 Cloudy with Light Rain 77 25 74 23.3 90 90 ESE 3 6 30.14 1021 9 14 0.06 1.52
1:26 pm 13:26 Cloudy with Heavy Rain 76 24.4 74 23.3 94 94 Calm 30.12 1020 2 3 0.13 3.30
1:33 pm 13:33 Cloudy with Rain 76 24.4 74 23.3 94 94 SSE 5 7 30.12 1020 2 2 0.15 3.81
1:43 pm 13:43 Cloudy with Light Rain 77 25 75 23.9 94 94 SE 5 7 30.12 1020 3 4 0.19 4.83
1:50 pm 13:50 Cloudy with Light Rain 75 24 73 23 94 94 SSE 10 17 30.12 1020 7 11 0.19 4.83
1:53 pm 13:53 Cloudy with Light Rain 75 23.9 72 22.2 90 90 SSE 8 13 30.13 1020 7 11 0.19 4.83
2:01 pm 14:01 Cloudy 74 23.3 71 21.7 91 91 SSE 5 7 30.12 1020 10 16 0.00 0.00
2:53 pm 14:53 Sunny 78 25.6 73 22.8 85 85 S 5 7 30.12 1020 10 16 0.00 0.00
3:17 pm 15:17 Mostly Sunny 79 26.1 73 22.8 82 82 S 12 19 30.10 1019 10 16 0.00 0.00
3:53 pm 15:53 Sunny 78 25.6 72 22.2 82 82 S 10 17 30.11 1020 10 16 0.00 0.00
4:53 pm 16:53 Mostly Cloudy 78 25.6 73 22.8 85 85 VRB 3 6 30.09 1019 10 16 0.01 0.25
5:24 pm 17:24 Mostly Cloudy 78 25.6 72 22.2 82 82 SSE 6 9 30.07 1018 10 16 0.00 0.00
5:53 pm 17:53 Mostly Cloudy 79 26.1 73 22.8 82 82 S 7 11 30.08 1019 10 16 0.00 0.00
6:10 pm 18:10 Partly Cloudy 79 26.1 73 22.8 82 82 S 7 11 30.06 1018 10 16 0.00 0.00
6:50 pm 18:50 Mostly Cloudy 79 26 73 23 84 84 SE 6 9 30.06 1018 10 16 0.00 0.00
6:53 pm 18:53 Mostly Cloudy 79 26.1 74 23.3 85 85 SE 8 13 30.07 1018 10 16 0.00 0.00
7:25 pm 19:25 Mostly Cloudy 78 25.6 73 22.8 85 85 SE 8 13 30.07 1018 10 16 0.00 0.00
7:53 pm 19:53 Mostly Cloudy 78 25.6 73 22.8 85 85 SSE 7 11 30.08 1019 10 16 0.00 0.00
8:53 pm 20:53 Cloudy 77 25 73 22.8 88 88 SSE 7 11 30.09 1019 10 16 0.00 0.00
9:53 pm 21:53 Cloudy 76 24.4 73 22.8 91 91 SSE 7 11 30.10 1019 10 16 0.00 0.00
10:53 pm 22:53 Cloudy 77 25 73 22.8 88 88 S 7 11 30.11 1020 10 16 0.00 0.00
11:53 pm 23:53 Cloudy 76 24.4 73 22.8 91 91 SSE 6 9 30.11 1020 10 16 0.00 0.00

Powered by AerisWeather